Saratoga-Weather Station Historical Data
Daily Summary for April 16, 2018 Units:  English    Metric   Both
Daily Weekly Monthly Yearly Custom
  High: Low: Average:
Temperature: 45.0 °F 34.5 °F 39.6 °F
Dew Point: 37.9 °F 28.6 °F 33.3 °F
Humidity: 90% 63% 78%
Wind Speed: 11.0mph 0.0mph 0.7mph
Wind Gust: 12.0mph - -
Wind- - West
Pressure: 30.15 in 29.88 in -
Precipitation: 0.00 in    
Historical Graphs
 
 
Tabular Data for April 16, 2018
Time Temperature Dew Point Pressure Wind Wind Speed Wind Gust Humidity Rainfall Rate (Hourly) solar
00:00 41.5 °F 37.6 °F 29.88 in WNW 0.9 mph 1.0 mph 86% 0.00 in meteobridge W/m2
00:05 41.4 °F 37.8 °F 29.88 in Calm   6.0 mph 87% 0.00 in meteobridge W/m2
00:10 41.2 °F 37.9 °F 29.88 in Calm     88% 0.00 in meteobridge W/m2
00:16 40.8 °F 37.8 °F 29.89 in Calm   8.0 mph 89% 0.00 in meteobridge W/m2
00:21 40.5 °F 37.4 °F 29.89 in Calm   6.0 mph 89% 0.00 in meteobridge W/m2
00:27 40.3 °F 37.6 °F 29.90 in NW 0.9 mph 6.0 mph 90% 0.00 in meteobridge W/m2
00:32 39.9 °F 37.2 °F 29.90 in Calm     90% 0.00 in meteobridge W/m2
00:37 39.7 °F 37.0 °F 29.90 in Calm   2.0 mph 90% 0.00 in meteobridge W/m2
00:42 39.6 °F 36.9 °F 29.90 in Calm   8.0 mph 90% 0.00 in meteobridge W/m2
00:47 39.4 °F 36.7 °F 29.90 in Calm   3.0 mph 90% 0.00 in meteobridge W/m2
00:52 39.4 °F 36.7 °F 29.91 in Calm     90% 0.00 in meteobridge W/m2
00:58 39.0 °F 36.1 °F 29.91 in NNW 0.9 mph 2.0 mph 89% 0.00 in meteobridge W/m2
01:03 39.0 °F 36.1 °F 29.91 in Calm     89% 0.00 in meteobridge W/m2
01:09 39.0 °F 36.1 °F 29.91 in Calm   1.0 mph 89% 0.00 in meteobridge W/m2
01:14 39.0 °F 36.1 °F 29.91 in WNW 0.9 mph 3.0 mph 89% 0.00 in meteobridge W/m2
01:20 39.0 °F 36.1 °F 29.91 in Calm   4.0 mph 89% 0.00 in meteobridge W/m2
01:25 39.0 °F 36.3 °F 29.91 in Calm   6.0 mph 90% 0.00 in meteobridge W/m2
01:30 39.0 °F 36.1 °F 29.91 in Calm   4.0 mph 89% 0.00 in meteobridge W/m2
01:36 39.0 °F 36.1 °F 29.91 in Calm   1.0 mph 89% 0.00 in meteobridge W/m2
01:41 39.0 °F 36.1 °F 29.91 in Calm   1.0 mph 89% 0.00 in meteobridge W/m2
01:46 39.0 °F 35.8 °F 29.91 in Calm   4.0 mph 88% 0.00 in meteobridge W/m2
01:52 39.0 °F 35.8 °F 29.91 in Calm   7.0 mph 88% 0.00 in meteobridge W/m2
01:57 39.0 °F 36.1 °F 29.91 in Calm   1.0 mph 89% 0.00 in meteobridge W/m2
02:03 39.2 °F 36.3 °F 29.91 in Calm   1.0 mph 89% 0.00 in meteobridge W/m2
02:08 39.2 °F 36.0 °F 29.91 in Calm     88% 0.00 in meteobridge W/m2
02:14 39.2 °F 36.3 °F 29.91 in Calm   3.0 mph 89% 0.00 in meteobridge W/m2
02:19 39.4 °F 36.1 °F 29.91 in Calm   6.0 mph 88% 0.00 in meteobridge W/m2
02:24 39.4 °F 36.1 °F 29.92 in NW 0.9 mph 2.0 mph 88% 0.00 in meteobridge W/m2
02:29 39.2 °F 36.0 °F 29.91 in Calm   3.0 mph 88% 0.00 in meteobridge W/m2
02:34 39.2 °F 36.0 °F 29.91 in East 0.9 mph 2.0 mph 88% 0.00 in meteobridge W/m2
02:39 39.2 °F 36.0 °F 29.92 in Calm   3.0 mph 88% 0.00 in meteobridge W/m2
02:45 39.0 °F 36.1 °F 29.92 in Calm     89% 0.00 in meteobridge W/m2
02:50 39.0 °F 35.8 °F 29.92 in West 2.0 mph 4.0 mph 88% 0.00 in meteobridge W/m2
02:56 39.0 °F 35.8 °F 29.92 in NW 0.9 mph 5.0 mph 88% 0.00 in meteobridge W/m2
03:01 39.0 °F 35.8 °F 29.92 in NW 2.0 mph 4.0 mph 88% 0.00 in meteobridge W/m2
03:06 39.0 °F 35.4 °F 29.92 in Calm   5.0 mph 87% 0.00 in meteobridge W/m2
03:12 39.0 °F 35.8 °F 29.92 in Calm   5.0 mph 88% 0.00 in meteobridge W/m2
03:17 38.8 °F 35.2 °F 29.92 in Calm   1.0 mph 87% 0.00 in meteobridge W/m2
03:22 39.0 °F 35.4 °F 29.92 in Calm   1.0 mph 87% 0.00 in meteobridge W/m2
03:28 38.8 °F 35.2 °F 29.92 in Calm   4.0 mph 87% 0.00 in meteobridge W/m2
03:33 38.8 °F 35.6 °F 29.92 in Calm   2.0 mph 88% 0.00 in meteobridge W/m2
03:38 38.8 °F 35.6 °F 29.93 in Calm   2.0 mph 88% 0.00 in meteobridge W/m2
03:43 38.8 °F 35.2 °F 29.92 in Calm   3.0 mph 87% 0.00 in meteobridge W/m2
03:49 38.8 °F 35.2 °F 29.92 in Calm   1.0 mph 87% 0.00 in meteobridge W/m2
03:54 38.8 °F 35.2 °F 29.92 in Calm     87% 0.00 in meteobridge W/m2
03:59 38.8 °F 35.2 °F 29.92 in NW 6.9 mph 7.0 mph 87% 0.00 in meteobridge W/m2
04:04 38.7 °F 34.9 °F 29.92 in Calm   4.0 mph 86% 0.00 in meteobridge W/m2
04:09 38.8 °F 35.2 °F 29.92 in Calm     87% 0.00 in meteobridge W/m2
04:14 38.8 °F 35.2 °F 29.92 in Calm   10.0 mph 87% 0.00 in meteobridge W/m2
04:19 38.7 °F 34.9 °F 29.92 in WNW 2.0 mph 9.0 mph 86% 0.00 in meteobridge W/m2
04:24 38.7 °F 34.9 °F 29.92 in Calm   1.0 mph 86% 0.00 in meteobridge W/m2
04:30 38.7 °F 34.9 °F 29.92 in Calm     86% 0.00 in meteobridge W/m2
04:35 38.7 °F 34.9 °F 29.92 in Calm   5.0 mph 86% 0.00 in meteobridge W/m2
04:40 38.7 °F 34.9 °F 29.92 in Calm     86% 0.00 in meteobridge W/m2
04:45 38.5 °F 34.7 °F 29.92 in Calm   1.0 mph 86% 0.00 in meteobridge W/m2
04:50 38.5 °F 34.7 °F 29.93 in Calm   1.0 mph 86% 0.00 in meteobridge W/m2
04:55 38.5 °F 34.9 °F 29.93 in Calm   4.0 mph 87% 0.00 in meteobridge W/m2
05:01 38.5 °F 34.9 °F 29.93 in Calm   2.0 mph 87% 0.00 in meteobridge W/m2
05:06 38.5 °F 34.9 °F 29.93 in Calm   2.0 mph 87% 0.00 in meteobridge W/m2
05:11 38.5 °F 34.9 °F 29.93 in Calm     87% 0.00 in meteobridge W/m2
05:17 38.5 °F 34.7 °F 29.93 in Calm     86% 0.00 in meteobridge W/m2
05:22 38.3 °F 34.5 °F 29.94 in Calm   3.0 mph 86% 0.00 in meteobridge W/m2
05:27 38.3 °F 34.5 °F 29.94 in Calm     86% 0.00 in meteobridge W/m2
05:33 38.5 °F 35.2 °F 29.94 in West 2.9 mph 7.0 mph 88% 0.00 in meteobridge W/m2
05:38 38.1 °F 34.5 °F 29.94 in Calm     87% 0.00 in meteobridge W/m2
05:44 38.1 °F 34.5 °F 29.94 in WNW 2.0 mph 3.0 mph 87% 0.00 in meteobridge W/m2
05:49 38.1 °F 34.5 °F 29.94 in NNW 0.9 mph 3.0 mph 87% 0.00 in meteobridge W/m2
05:54 38.1 °F 34.5 °F 29.94 in NW 0.9 mph 4.0 mph 87% 0.00 in meteobridge W/m2
05:59 37.9 °F 34.3 °F 29.94 in Calm   4.0 mph 87% 0.00 in meteobridge W/m2
06:04 37.9 °F 34.7 °F 29.93 in Calm   3.0 mph 88% 0.00 in meteobridge W/m2
06:10 38.1 °F 34.9 °F 29.94 in Calm     88% 0.00 in meteobridge W/m2
06:15 37.9 °F 34.3 °F 29.94 in Calm   2.0 mph 87% 0.00 in meteobridge W/m2
06:20 37.9 °F 34.3 °F 29.94 in West 0.9 mph 4.0 mph 87% 0.00 in meteobridge W/m2
06:25 37.8 °F 34.0 °F 29.94 in Calm   4.0 mph 86% 0.00 in meteobridge W/m2
06:31 37.8 °F 34.2 °F 29.94 in Calm   1.0 mph 87% 0.00 in meteobridge W/m2
06:36 37.8 °F 34.2 °F 29.95 in Calm     87% 0.00 in meteobridge W/m2
06:41 37.8 °F 34.2 °F 29.95 in Calm     87% 0.00 in meteobridge W/m2
06:47 37.8 °F 34.2 °F 29.96 in NW 4.0 mph 5.0 mph 87% 0.00 in meteobridge W/m2
06:52 37.8 °F 34.2 °F 29.96 in Calm     87% 0.00 in meteobridge W/m2
06:58 37.8 °F 34.2 °F 29.96 in Calm   1.0 mph 87% 0.00 in meteobridge W/m2
07:03 37.8 °F 34.2 °F 29.96 in Calm     87% 0.00 in meteobridge W/m2
07:08 37.8 °F 34.5 °F 29.96 in Calm   2.0 mph 88% 0.00 in meteobridge W/m2
07:13 37.8 °F 34.2 °F 29.96 in Calm   3.0 mph 87% 0.00 in meteobridge W/m2
07:18 37.8 °F 34.5 °F 29.96 in Calm   1.0 mph 88% 0.00 in meteobridge W/m2
07:24 37.8 °F 34.5 °F 29.97 in Calm     88% 0.00 in meteobridge W/m2
07:29 37.6 °F 34.0 °F 29.96 in Calm   3.0 mph 87% 0.00 in meteobridge W/m2
07:34 37.8 °F 34.5 °F 29.96 in Calm   1.0 mph 88% 0.00 in meteobridge W/m2
07:39 37.8 °F 34.5 °F 29.96 in Calm     88% 0.00 in meteobridge W/m2
07:45 37.6 °F 34.0 °F 29.97 in Calm   1.0 mph 87% 0.00 in meteobridge W/m2
07:50 37.6 °F 34.0 °F 29.97 in Calm   2.0 mph 87% 0.00 in meteobridge W/m2
07:55 37.8 °F 34.2 °F 29.97 in Calm   2.0 mph 87% 0.00 in meteobridge W/m2
08:00 37.8 °F 34.5 °F 29.98 in Calm     88% 0.00 in meteobridge W/m2
08:05 37.8 °F 34.2 °F 29.97 in Calm     87% 0.00 in meteobridge W/m2
08:11 37.8 °F 34.2 °F 29.98 in Calm     87% 0.00 in meteobridge W/m2
08:16 37.8 °F 34.2 °F 29.98 in Calm   10.0 mph 87% 0.00 in meteobridge W/m2
08:21 37.9 °F 34.3 °F 29.98 in Calm     87% 0.00 in meteobridge W/m2
08:26 37.9 °F 34.3 °F 29.98 in Calm     87% 0.00 in meteobridge W/m2
08:32 37.9 °F 34.2 °F 29.98 in Calm     86% 0.00 in meteobridge W/m2
08:37 38.1 °F 34.3 °F 29.98 in NW 0.9 mph 1.0 mph 86% 0.00 in meteobridge W/m2
08:42 38.1 °F 34.3 °F 29.98 in Calm   1.0 mph 86% 0.00 in meteobridge W/m2
08:48 38.3 °F 34.2 °F 29.98 in Calm   6.0 mph 85% 0.00 in meteobridge W/m2
08:53 38.5 °F 34.3 °F 29.99 in Calm   1.0 mph 85% 0.00 in meteobridge W/m2
08:59 38.7 °F 34.5 °F 29.99 in Calm   1.0 mph 85% 0.00 in meteobridge W/m2
09:04 38.7 °F 34.5 °F 29.99 in Calm     85% 0.00 in meteobridge W/m2
09:09 38.5 °F 34.7 °F 30.00 in Calm   2.0 mph 86% 0.00 in meteobridge W/m2
09:14 38.1 °F 34.3 °F 30.00 in NW 2.0 mph 6.0 mph 86% 0.00 in meteobridge W/m2
09:19 37.9 °F 34.3 °F 30.00 in Calm   1.0 mph 87% 0.00 in meteobridge W/m2
09:24 37.9 °F 34.7 °F 29.99 in Calm   4.0 mph 88% 0.00 in meteobridge W/m2
09:29 37.9 °F 34.2 °F 29.99 in Calm   3.0 mph 86% 0.00 in meteobridge W/m2
09:35 37.9 °F 34.3 °F 30.00 in Calm     87% 0.00 in meteobridge W/m2
09:40 37.9 °F 34.3 °F 30.00 in Calm     87% 0.00 in meteobridge W/m2
09:45 37.9 °F 34.3 °F 30.01 in NW 2.9 mph 5.0 mph 87% 0.00 in meteobridge W/m2
09:50 37.8 °F 34.2 °F 30.01 in Calm     87% 0.00 in meteobridge W/m2
09:56 37.9 °F 34.3 °F 30.01 in WNW 2.0 mph 5.0 mph 87% 0.00 in meteobridge W/m2
10:01 37.9 °F 34.2 °F 30.01 in Calm   8.0 mph 86% 0.00 in meteobridge W/m2
10:06 38.1 °F 34.0 °F 30.01 in Calm   1.0 mph 85% 0.00 in meteobridge W/m2
10:12 38.1 °F 34.3 °F 30.01 in Calm   3.0 mph 86% 0.00 in meteobridge W/m2
10:17 38.1 °F 34.3 °F 30.02 in Calm     86% 0.00 in meteobridge W/m2
10:23 37.9 °F 34.2 °F 30.02 in Calm     86% 0.00 in meteobridge W/m2
10:28 37.9 °F 34.2 °F 30.02 in Calm   1.0 mph 86% 0.00 in meteobridge W/m2
10:34 37.9 °F 34.3 °F 30.02 in Calm   3.0 mph 87% 0.00 in meteobridge W/m2
10:39 37.6 °F 34.0 °F 30.02 in WNW 2.0 mph 3.0 mph 87% 0.00 in meteobridge W/m2
10:44 37.4 °F 34.2 °F 30.02 in Calm     88% 0.00 in meteobridge W/m2
10:50 37.6 °F 34.0 °F 30.02 in Calm   6.0 mph 87% 0.00 in meteobridge W/m2
10:55 37.8 °F 33.6 °F 30.01 in North 4.0 mph 7.0 mph 85% 0.00 in meteobridge W/m2
11:00 37.9 °F 33.3 °F 30.02 in North 2.9 mph 5.0 mph 83% 0.00 in meteobridge W/m2
11:05 38.1 °F 33.1 °F 30.02 in Calm   5.0 mph 82% 0.00 in meteobridge W/m2
11:10 38.7 °F 33.1 °F 30.03 in Calm   4.0 mph 80% 0.00 in meteobridge W/m2
11:16 38.8 °F 32.9 °F 30.03 in Calm   5.0 mph 79% 0.00 in meteobridge W/m2
11:21 39.0 °F 32.7 °F 30.03 in WNW 2.9 mph 10.0 mph 78% 0.00 in meteobridge W/m2
11:26 38.8 °F 32.2 °F 30.04 in WNW 2.9 mph 5.0 mph 77% 0.00 in meteobridge W/m2
11:32 38.8 °F 32.5 °F 30.04 in Calm   3.0 mph 78% 0.00 in meteobridge W/m2
11:38 38.7 °F 32.7 °F 30.05 in NNE 0.9 mph 10.0 mph 79% 0.00 in meteobridge W/m2
11:43 38.3 °F 32.4 °F 30.05 in Calm   5.0 mph 79% 0.00 in meteobridge W/m2
11:48 37.9 °F 31.6 °F 30.05 in Calm   6.0 mph 78% 0.00 in meteobridge W/m2
11:53 37.8 °F 31.5 °F 30.05 in Calm   3.0 mph 78% 0.00 in meteobridge W/m2
11:58 37.9 °F 31.6 °F 30.05 in NW 0.9 mph 7.0 mph 78% 0.00 in meteobridge W/m2
12:04 37.9 °F 31.5 °F 30.05 in WNW 4.0 mph 10.0 mph 77% 0.00 in meteobridge W/m2
12:09 38.1 °F 31.6 °F 30.05 in WNW 4.0 mph 5.0 mph 77% 0.00 in meteobridge W/m2
12:14 38.5 °F 32.2 °F 30.05 in WNW 2.0 mph 5.0 mph 78% 0.00 in meteobridge W/m2
12:19 38.5 °F 31.3 °F 30.04 in NW 2.0 mph 8.0 mph 75% 0.00 in meteobridge W/m2
12:24 38.5 °F 31.3 °F 30.04 in NNW 2.9 mph 8.0 mph 75% 0.00 in meteobridge W/m2
12:30 38.7 °F 31.8 °F 30.04 in WSW 2.9 mph 5.0 mph 76% 0.00 in meteobridge W/m2
12:35 39.0 °F 31.8 °F 30.04 in Calm     75% 0.00 in meteobridge W/m2
12:41 39.4 °F 31.8 °F 30.04 in SSE 4.0 mph 10.0 mph 74% 0.00 in meteobridge W/m2
12:46 39.7 °F 32.2 °F 30.04 in WNW 0.9 mph 11.0 mph 74% 0.00 in meteobridge W/m2
12:51 39.6 °F 31.3 °F 30.05 in West 4.0 mph 9.0 mph 72% 0.00 in meteobridge W/m2
12:57 39.6 °F 31.3 °F 30.05 in NW 4.9 mph 7.0 mph 72% 0.00 in meteobridge W/m2
13:02 39.6 °F 32.0 °F 30.05 in Calm   2.0 mph 74% 0.00 in meteobridge W/m2
13:08 39.6 °F 31.3 °F 30.05 in WNW 2.0 mph 8.0 mph 72% 0.00 in meteobridge W/m2
13:13 39.6 °F 31.6 °F 30.05 in Calm   5.0 mph 73% 0.00 in meteobridge W/m2
13:18 39.6 °F 31.6 °F 30.05 in WNW 2.9 mph 5.0 mph 73% 0.00 in meteobridge W/m2
13:23 39.7 °F 31.1 °F 30.05 in Calm   5.0 mph 71% 0.00 in meteobridge W/m2
13:29 39.6 °F 30.9 °F 30.05 in Calm   7.0 mph 71% 0.00 in meteobridge W/m2
13:34 39.6 °F 31.3 °F 30.05 in Calm   3.0 mph 72% 0.00 in meteobridge W/m2
13:39 39.4 °F 31.5 °F 30.05 in Calm   1.0 mph 73% 0.00 in meteobridge W/m2
13:44 39.4 °F 31.8 °F 30.05 in NW 0.9 mph 10.0 mph 74% 0.00 in meteobridge W/m2
13:50 39.6 °F 32.0 °F 30.05 in NW 2.0 mph 2.0 mph 74% 0.00 in meteobridge W/m2
13:55 40.3 °F 31.6 °F 30.05 in Calm   4.0 mph 71% 0.00 in meteobridge W/m2
14:00 40.6 °F 32.0 °F 30.05 in West 0.9 mph 4.0 mph 71% 0.00 in meteobridge W/m2
14:05 40.6 °F 32.4 °F 30.05 in Calm   1.0 mph 72% 0.00 in meteobridge W/m2
14:10 40.6 °F 31.6 °F 30.05 in Calm   8.0 mph 70% 0.00 in meteobridge W/m2
14:15 40.6 °F 31.3 °F 30.05 in Calm   6.0 mph 69% 0.00 in meteobridge W/m2
14:20 40.6 °F 31.6 °F 30.05 in Calm   3.0 mph 70% 0.00 in meteobridge W/m2
14:25 40.8 °F 31.8 °F 30.05 in NE 4.0 mph 4.0 mph 70% 0.00 in meteobridge W/m2
14:30 41.2 °F 32.2 °F 30.05 in Calm   6.0 mph 70% 0.00 in meteobridge W/m2
14:35 41.4 °F 32.0 °F 30.05 in Calm   4.0 mph 69% 0.00 in meteobridge W/m2
14:41 41.0 °F 32.0 °F 30.05 in Calm   3.0 mph 70% 0.00 in meteobridge W/m2
14:46 41.0 °F 32.0 °F 30.05 in West 0.9 mph 8.0 mph 70% 0.00 in meteobridge W/m2
14:52 41.2 °F 31.8 °F 30.05 in WNW 0.9 mph 12.0 mph 69% 0.00 in meteobridge W/m2
14:57 41.5 °F 32.5 °F 30.05 in Calm   6.0 mph 70% 0.00 in meteobridge W/m2
15:02 41.7 °F 32.0 °F 30.04 in WNW 6.0 mph 11.0 mph 68% 0.00 in meteobridge W/m2
15:08 41.9 °F 32.5 °F 30.05 in Calm   2.0 mph 69% 0.00 in meteobridge W/m2
15:13 42.1 °F 32.7 °F 30.05 in Calm   5.0 mph 69% 0.00 in meteobridge W/m2
15:19 42.1 °F 33.1 °F 30.05 in North 6.0 mph 6.0 mph 70% 0.00 in meteobridge W/m2
15:24 42.1 °F 32.4 °F 30.05 in WNW 2.0 mph 8.0 mph 68% 0.00 in meteobridge W/m2
15:29 41.7 °F 32.4 °F 30.05 in Calm     69% 0.00 in meteobridge W/m2
15:34 42.1 °F 33.1 °F 30.05 in WNW 4.0 mph 6.0 mph 70% 0.00 in meteobridge W/m2
15:39 42.3 °F 32.9 °F 30.04 in NNW 6.9 mph 8.0 mph 69% 0.00 in meteobridge W/m2
15:44 42.6 °F 32.7 °F 30.04 in Calm   8.0 mph 68% 0.00 in meteobridge W/m2
15:49 43.0 °F 33.4 °F 30.04 in Calm   4.0 mph 69% 0.00 in meteobridge W/m2
15:54 43.0 °F 33.1 °F 30.04 in Calm   5.0 mph 68% 0.00 in meteobridge W/m2
16:00 43.2 °F 32.9 °F 30.04 in SW 2.9 mph 5.0 mph 67% 0.00 in meteobridge W/m2
16:05 43.2 °F 32.5 °F 30.04 in Calm   5.0 mph 66% 0.00 in meteobridge W/m2
16:10 43.5 °F 33.3 °F 30.04 in West 0.9 mph 8.0 mph 67% 0.00 in meteobridge W/m2
16:15 43.7 °F 33.1 °F 30.04 in NNW 4.0 mph 9.0 mph 66% 0.00 in meteobridge W/m2
16:20 43.9 °F 33.3 °F 30.04 in NW 4.0 mph 4.0 mph 66% 0.00 in meteobridge W/m2
16:26 43.3 °F 32.4 °F 30.03 in Calm   9.0 mph 65% 0.00 in meteobridge W/m2
16:31 43.3 °F 32.7 °F 30.03 in WSW 11.0 mph 11.0 mph 66% 0.00 in meteobridge W/m2
16:36 43.9 °F 33.3 °F 30.03 in Calm   8.0 mph 66% 0.00 in meteobridge W/m2
16:41 44.2 °F 33.3 °F 30.03 in Calm   8.0 mph 65% 0.00 in meteobridge W/m2
16:46 44.2 °F 32.9 °F 30.03 in WNW 2.9 mph 10.0 mph 64% 0.00 in meteobridge W/m2
16:51 43.9 °F 32.9 °F 30.03 in Calm   3.0 mph 65% 0.00 in meteobridge W/m2
16:56 44.1 °F 32.7 °F 30.03 in ENE 2.9 mph 7.0 mph 64% 0.00 in meteobridge W/m2
17:02 44.1 °F 33.1 °F 30.03 in Calm   5.0 mph 65% 0.00 in meteobridge W/m2
17:07 44.2 °F 33.3 °F 30.03 in Calm   7.0 mph 65% 0.00 in meteobridge W/m2
17:12 44.8 °F 33.8 °F 30.03 in WNW 2.9 mph 6.0 mph 65% 0.00 in meteobridge W/m2
17:17 44.6 °F 33.6 °F 30.04 in Calm     65% 0.00 in meteobridge W/m2
17:23 44.2 °F 32.9 °F 30.04 in WNW 2.0 mph 4.0 mph 64% 0.00 in meteobridge W/m2
17:28 43.7 °F 32.4 °F 30.04 in Calm   4.0 mph 64% 0.00 in meteobridge W/m2
17:33 43.3 °F 32.4 °F 30.04 in Calm   4.0 mph 65% 0.00 in meteobridge W/m2
17:38 43.2 °F 32.5 °F 30.04 in Calm   3.0 mph 66% 0.00 in meteobridge W/m2
17:44 43.2 °F 32.9 °F 30.04 in North 2.0 mph 5.0 mph 67% 0.00 in meteobridge W/m2
17:49 43.5 °F 32.9 °F 30.04 in NNW 4.9 mph 8.0 mph 66% 0.00 in meteobridge W/m2
17:54 44.1 °F 33.8 °F 30.04 in Calm   5.0 mph 67% 0.00 in meteobridge W/m2
17:59 44.8 °F 33.3 °F 30.04 in Calm   2.0 mph 64% 0.00 in meteobridge W/m2
18:04 44.8 °F 32.9 °F 30.05 in Calm   2.0 mph 63% 0.00 in meteobridge W/m2
18:10 44.8 °F 33.8 °F 30.05 in Calm   2.0 mph 65% 0.00 in meteobridge W/m2
18:15 44.8 °F 32.9 °F 30.05 in WNW 2.9 mph 3.0 mph 63% 0.00 in meteobridge W/m2
18:20 44.8 °F 32.9 °F 30.05 in Calm     63% 0.00 in meteobridge W/m2
18:25 44.8 °F 32.9 °F 30.05 in Calm   3.0 mph 63% 0.00 in meteobridge W/m2
18:30 44.8 °F 32.9 °F 30.05 in Calm   5.0 mph 63% 0.00 in meteobridge W/m2
18:36 44.8 °F 33.3 °F 30.05 in Calm     64% 0.00 in meteobridge W/m2
18:41 44.8 °F 33.8 °F 30.06 in Calm   6.0 mph 65% 0.00 in meteobridge W/m2
18:47 45.0 °F 33.4 °F 30.05 in Calm   5.0 mph 64% 0.00 in meteobridge W/m2
18:52 45.0 °F 33.4 °F 30.05 in Calm     64% 0.00 in meteobridge W/m2
18:57 44.4 °F 32.5 °F 30.06 in Calm   3.0 mph 63% 0.00 in meteobridge W/m2
19:08 44.1 °F 32.7 °F 30.06 in Calm   5.0 mph 64% 0.00 in meteobridge W/m2
19:13 43.9 °F 32.9 °F 30.06 in Calm     65% 0.00 in meteobridge W/m2
19:19 43.7 °F 32.7 °F 30.06 in ENE 0.9 mph 4.0 mph 65% 0.00 in meteobridge W/m2
19:24 43.5 °F 32.5 °F 30.06 in Calm   4.0 mph 65% 0.00 in meteobridge W/m2
19:29 43.3 °F 32.7 °F 30.06 in Calm   2.0 mph 66% 0.00 in meteobridge W/m2
19:35 43.2 °F 32.9 °F 30.06 in NNW 4.0 mph 6.0 mph 67% 0.00 in meteobridge W/m2
19:40 43.2 °F 32.9 °F 30.06 in Calm   4.0 mph 67% 0.00 in meteobridge W/m2
19:45 43.2 °F 32.5 °F 30.06 in Calm   1.0 mph 66% 0.00 in meteobridge W/m2
19:50 43.0 °F 32.0 °F 30.07 in Calm   4.0 mph 65% 0.00 in meteobridge W/m2
19:55 43.0 °F 32.7 °F 30.07 in NW 0.9 mph 5.0 mph 67% 0.00 in meteobridge W/m2
20:00 42.6 °F 32.4 °F 30.07 in Calm   1.0 mph 67% 0.00 in meteobridge W/m2
20:06 42.4 °F 32.2 °F 30.08 in Calm   4.0 mph 67% 0.00 in meteobridge W/m2
20:11 42.3 °F 32.5 °F 30.08 in Calm   4.0 mph 68% 0.00 in meteobridge W/m2
20:16 41.9 °F 32.2 °F 30.08 in Calm   5.0 mph 68% 0.00 in meteobridge W/m2
20:21 41.7 °F 32.4 °F 30.08 in NNW 4.0 mph 4.0 mph 69% 0.00 in meteobridge W/m2
20:26 41.4 °F 32.0 °F 30.08 in Calm     69% 0.00 in meteobridge W/m2
20:31 41.2 °F 32.2 °F 30.09 in Calm   4.0 mph 70% 0.00 in meteobridge W/m2
20:37 40.6 °F 31.6 °F 30.09 in Calm   5.0 mph 70% 0.00 in meteobridge W/m2
20:42 40.5 °F 31.5 °F 30.09 in Calm   2.0 mph 70% 0.00 in meteobridge W/m2
20:47 40.1 °F 31.5 °F 30.10 in Calm   1.0 mph 71% 0.00 in meteobridge W/m2
20:53 39.7 °F 31.1 °F 30.10 in Calm     71% 0.00 in meteobridge W/m2
20:58 39.6 °F 31.3 °F 30.11 in Calm     72% 0.00 in meteobridge W/m2
21:03 39.2 °F 30.6 °F 30.11 in NE 2.9 mph 5.0 mph 71% 0.00 in meteobridge W/m2
21:08 39.0 °F 31.1 °F 30.11 in Calm   1.0 mph 73% 0.00 in meteobridge W/m2
21:14 38.8 °F 30.6 °F 30.11 in Calm   2.0 mph 72% 0.00 in meteobridge W/m2
21:19 38.7 °F 30.4 °F 30.11 in Calm   2.0 mph 72% 0.00 in meteobridge W/m2
21:25 38.5 °F 30.2 °F 30.11 in Calm     72% 0.00 in meteobridge W/m2
21:30 38.1 °F 29.8 °F 30.11 in Calm   4.0 mph 72% 0.00 in meteobridge W/m2
21:35 37.9 °F 30.0 °F 30.12 in NW 0.9 mph 1.0 mph 73% 0.00 in meteobridge W/m2
21:40 37.8 °F 29.8 °F 30.12 in Calm     73% 0.00 in meteobridge W/m2
21:46 37.8 °F 29.8 °F 30.12 in Calm   1.0 mph 73% 0.00 in meteobridge W/m2
21:51 37.6 °F 29.7 °F 30.12 in NW 2.0 mph 3.0 mph 73% 0.00 in meteobridge W/m2
21:57 37.4 °F 29.5 °F 30.12 in NE 0.9 mph 6.0 mph 73% 0.00 in meteobridge W/m2
22:02 37.4 °F 29.5 °F 30.12 in West 0.9 mph 1.0 mph 73% 0.00 in meteobridge W/m2
22:07 37.2 °F 29.3 °F 30.13 in Calm   1.0 mph 73% 0.00 in meteobridge W/m2
22:13 37.2 °F 29.3 °F 30.13 in Calm   3.0 mph 73% 0.00 in meteobridge W/m2
22:18 37.0 °F 29.1 °F 30.13 in NNW 2.0 mph 4.0 mph 73% 0.00 in meteobridge W/m2
22:23 37.0 °F 29.1 °F 30.13 in Calm   1.0 mph 73% 0.00 in meteobridge W/m2
22:29 36.9 °F 28.9 °F 30.14 in Calm     73% 0.00 in meteobridge W/m2
22:34 36.9 °F 29.3 °F 30.14 in Calm   1.0 mph 74% 0.00 in meteobridge W/m2
22:39 36.7 °F 29.1 °F 30.14 in Calm     74% 0.00 in meteobridge W/m2
22:45 36.7 °F 29.5 °F 30.14 in West 4.0 mph 4.0 mph 75% 0.00 in meteobridge W/m2
22:50 36.3 °F 28.8 °F 30.14 in NW 0.9 mph 2.0 mph 74% 0.00 in meteobridge W/m2
22:56 36.3 °F 28.8 °F 30.14 in Calm     74% 0.00 in meteobridge W/m2
23:01 36.3 °F 29.1 °F 30.14 in Calm     75% 0.00 in meteobridge W/m2
23:06 36.1 °F 28.9 °F 30.15 in Calm     75% 0.00 in meteobridge W/m2
23:11 36.0 °F 28.8 °F 30.14 in Calm   2.0 mph 75% 0.00 in meteobridge W/m2
23:17 35.8 °F 28.6 °F 30.14 in Calm     75% 0.00 in meteobridge W/m2
23:22 35.8 °F 28.9 °F 30.14 in Calm     76% 0.00 in meteobridge W/m2
23:27 35.8 °F 28.9 °F 30.14 in Calm     76% 0.00 in meteobridge W/m2
23:33 35.6 °F 29.1 °F 30.14 in Calm     77% 0.00 in meteobridge W/m2
23:38 35.4 °F 28.9 °F 30.14 in Calm   1.0 mph 77% 0.00 in meteobridge W/m2
23:43 35.4 °F 28.9 °F 30.14 in Calm     77% 0.00 in meteobridge W/m2
23:48 35.2 °F 29.1 °F 30.14 in Calm     78% 0.00 in meteobridge W/m2
23:54 34.9 °F 28.8 °F 30.14 in Calm     78% 0.00 in meteobridge W/m2
23:59 34.5 °F 28.8 °F 30.14 in Calm     79% 0.00 in meteobridge W/m2
Juneau County Weather
Compliments of Weather Underground - 2.5 mb